Location: Rio de Janeiro
(22.9068°S, 43.1729°W)
Time: 19:39:53
(UTC-03:00)

Hubble Space Telescope - Visible Passes

Search period start: 29 November 2023 00:00
Search period end: 09 December 2023 00:00
Orbit: 519 x 523 km, 28.5° (Epoch: 28 November)

Date Brightness Start Highest point End Pass type
(mag) Time Alt. Az. Time Alt. Az. Time Alt. Az.
29 Nov 3.7 02:13:00 11° E 02:13:00 11° E 02:13:16 10° E visible
29 Nov 0.9 03:47:58 24° W 03:50:14 64° SSW 03:54:18 10° ESE visible
30 Nov 1.1 03:32:23 33° WSW 03:33:56 57° SSW 03:37:57 10° ESE visible
01 Dec 1.3 03:16:47 42° SW 03:17:38 51° SSW 03:21:37 10° ESE visible
02 Dec 1.4 03:01:10 46° SSW 03:01:19 46° S 03:05:15 10° ESE visible
03 Dec 1.9 02:45:34 40° SSE 02:45:34 40° SSE 02:48:53 10° ESE visible
03 Dec 2.0 04:22:20 10° WSW 04:26:09 38° S 04:29:58 10° ESE visible
04 Dec 2.6 02:30:00 30° SE 02:30:00 30° SE 02:32:30 10° ESE visible
04 Dec 1.9 04:05:58 10° WSW 04:09:49 39° S 04:13:39 10° ESE visible
05 Dec 3.2 02:14:28 21° SE 02:14:28 21° SE 02:16:07 10° ESE visible
05 Dec 1.8 03:49:34 10° WSW 03:53:27 42° S 03:57:19 10° E visible
06 Dec 3.7 01:59:03 14° ESE 01:59:03 14° ESE 01:59:43 10° ESE visible
06 Dec 1.7 03:34:02 16° WSW 03:37:04 45° S 03:40:59 10° E visible
07 Dec 1.5 03:18:44 26° SW 03:20:40 49° S 03:24:38 10° E visible
08 Dec 1.3 03:03:36 48° SSW 03:04:15 55° SSE 03:08:14 10° E visible
